When you browse on this site, cookies collect data to enhance your experience and personalize the content and advertising you see.
Visit our Privacy Policy to learn more. By continuing to use the site, you agree to this use of cookies and data.
  • In Latvia
  • List of Countries
  • For 7 days
  • Water Temperature
  • Satellite Maps
  • Weather Map
  • Weather Widgets
  • user-avatar
    Login

    Hourly Weather Zuwara

    Today, 21 March, Thursday

    Time Temperature Precipitation Wind Pressure Humidity
    00:00 +14°C° 0 mm 5 mps 760 mmHg 68%
    01:00 +13°C° 0 mm 5 mps 760 mmHg 66%
    02:00 +13°C° 0 mm 5 mps 760 mmHg 64%
    03:00 +13°C° 0 mm 4 mps 759 mmHg 61%
    04:00 +12°C° 0 mm 4 mps 759 mmHg 58%
    05:00 +12°C° 0 mm 4 mps 760 mmHg 58%
    06:00 +12°C° 0 mm 4 mps 760 mmHg 57%
    07:00 +12°C° 0 mm 4 mps 760 mmHg 56%
    08:00 +13°C° 0 mm 4 mps 760 mmHg 52%
    09:00 +14°C° 0 mm 4 mps 760 mmHg 47%
    10:00 +16°C° 0 mm 5 mps 761 mmHg 43%
    11:00 +17°C° 0 mm 5 mps 761 mmHg 39%
    12:00 +19°C° 0 mm 4 mps 761 mmHg 36%
    13:00 +20°C° 0 mm 4 mps 761 mmHg 33%
    14:00 +20°C° 0 mm 4 mps 760 mmHg 31%
    15:00 +21°C° 0 mm 4 mps 760 mmHg 30%
    16:00 +21°C° 0 mm 3 mps 760 mmHg 29%
    17:00 +20°C° 0 mm 4 mps 760 mmHg 35%
    18:00 +19°C° 0 mm 5 mps 760 mmHg 42%
    19:00 +16°C° 0 mm 6 mps 760 mmHg 48%
    20:00 +16°C° 0 mm 6 mps 761 mmHg 53%
    21:00 +16°C° 0 mm 6 mps 761 mmHg 58%
    22:00 +15°C° 0 mm 6 mps 762 mmHg 63%
    23:00 +15°C° 0 mm 5 mps 762 mmHg 59%

    Tomorrow, 22 March, Friday

    Time Temperature Precipitation Wind Pressure Humidity
    00:00 +15°C° 0 mm 5 mps 762 mmHg 56%
    01:00 +15°C° 0 mm 4 mps 762 mmHg 52%
    02:00 +14°C° 0 mm 5 mps 761 mmHg 54%
    03:00 +14°C° 0 mm 5 mps 761 mmHg 56%
    04:00 +13°C° 0 mm 6 mps 761 mmHg 58%
    05:00 +13°C° 0 mm 5 mps 761 mmHg 59%
    06:00 +13°C° 0 mm 5 mps 761 mmHg 60%
    07:00 +13°C° 0 mm 5 mps 762 mmHg 61%
    08:00 +14°C° 0 mm 5 mps 762 mmHg 56%
    09:00 +16°C° 0 mm 5 mps 762 mmHg 50%
    10:00 +17°C° 0 mm 6 mps 762 mmHg 44%
    11:00 +19°C° 0 mm 5 mps 762 mmHg 42%
    12:00 +19°C° 0 mm 5 mps 762 mmHg 39%
    13:00 +20°C° 0 mm 5 mps 762 mmHg 37%
    14:00 +19°C° 0 mm 6 mps 761 mmHg 44%
    15:00 +18°C° 0 mm 7 mps 761 mmHg 52%
    16:00 +17°C° 0 mm 8 mps 760 mmHg 59%
    17:00 +16°C° 0 mm 8 mps 761 mmHg 66%
    18:00 +15°C° 0 mm 8 mps 761 mmHg 72%
    19:00 +13°C° 0 mm 9 mps 761 mmHg 78%
    20:00 +14°C° 0 mm 7 mps 761 mmHg 79%
    21:00 +14°C° 0 mm 6 mps 762 mmHg 79%
    22:00 +14°C° 0 mm 5 mps 762 mmHg 80%
    23:00 +14°C° 0 mm 4 mps 762 mmHg 80%

    Day after tomorrow, 23 March, Saturday

    Time Temperature Precipitation Wind Pressure Humidity
    00:00 +13°C° 0 mm 3 mps 762 mmHg 81%
    01:00 +14°C° 0 mm 1 mps 762 mmHg 82%
    02:00 +14°C° 0 mm 2 mps 762 mmHg 82%
    03:00 +13°C° 0 mm 3 mps 762 mmHg 82%
    04:00 +13°C° 0 mm 4 mps 762 mmHg 82%
    05:00 +13°C° 0 mm 4 mps 762 mmHg 82%
    06:00 +12°C° 0 mm 4 mps 762 mmHg 82%
    07:00 +12°C° 0 mm 4 mps 763 mmHg 82%
    08:00 +13°C° 0 mm 4 mps 763 mmHg 74%
    09:00 +15°C° 0 mm 4 mps 763 mmHg 67%
    10:00 +17°C° 0 mm 4 mps 764 mmHg 59%
    11:00 +17°C° 0 mm 4 mps 763 mmHg 55%
    12:00 +18°C° 0 mm 4 mps 763 mmHg 50%
    13:00 +19°C° 0 mm 5 mps 763 mmHg 46%
    14:00 +19°C° 0 mm 5 mps 762 mmHg 47%
    15:00 +19°C° 0 mm 5 mps 762 mmHg 47%
    16:00 +19°C° 0 mm 5 mps 762 mmHg 48%
    17:00 +18°C° 0 mm 4 mps 762 mmHg 53%
    18:00 +17°C° 0 mm 4 mps 763 mmHg 58%
    19:00 +16°C° 0 mm 3 mps 763 mmHg 63%
    20:00 +16°C° 0 mm 2 mps 763 mmHg 64%
    21:00 +16°C° 0 mm 2 mps 764 mmHg 65%
    22:00 +16°C° 0 mm 1 mps 764 mmHg 66%
    23:00 +15°C° 0 mm 1 mps 764 mmHg 68%

    24 March, Sunday

    Time Temperature Precipitation Wind Pressure Humidity
    00:00 +15°C° 0 mm 2 mps 764 mmHg 70%
    01:00 +15°C° 0 mm 2 mps 764 mmHg 71%
    02:00 +13°C° 0 mm 3 mps 764 mmHg 77%
    03:00 +13°C° 0 mm 4 mps 764 mmHg 82%
    04:00 +13°C° 0 mm 4 mps 764 mmHg 87%
    05:00 +13°C° 0 mm 4 mps 765 mmHg 87%
    06:00 +13°C° 0 mm 4 mps 765 mmHg 88%
    07:00 +13°C° 0 mm 4 mps 765 mmHg 88%
    08:00 +14°C° 0 mm 3 mps 766 mmHg 83%
    09:00 +16°C° 0 mm 3 mps 766 mmHg 78%
    10:00 +17°C° 0 mm 3 mps 767 mmHg 73%
    11:00 +18°C° 0 mm 4 mps 767 mmHg 68%
    12:00 +18°C° 0 mm 4 mps 766 mmHg 64%
    13:00 +19°C° 0 mm 5 mps 766 mmHg 60%
    14:00 +19°C° 0 mm 6 mps 766 mmHg 60%
    15:00 +18°C° 0 mm 7 mps 765 mmHg 61%
    16:00 +18°C° 0 mm 8 mps 765 mmHg 61%
    17:00 +17°C° 0 mm 8 mps 765 mmHg 66%
    18:00 +16°C° 0 mm 8 mps 766 mmHg 71%
    19:00 +15°C° 0 mm 9 mps 766 mmHg 75%
    20:00 +15°C° 0 mm 8 mps 766 mmHg 76%
    21:00 +15°C° 0 mm 8 mps 767 mmHg 76%
    22:00 +15°C° 0 mm 7 mps 767 mmHg 77%
    23:00 +15°C° 0 mm 7 mps 767 mmHg 77%

    25 March, Monday

    Time Temperature Precipitation Wind Pressure Humidity
    00:00 +15°C° 0 mm 7 mps 766 mmHg 77%
    01:00 +15°C° 0 mm 7 mps 766 mmHg 77%
    02:00 +15°C° 0 mm 6 mps 766 mmHg 77%
    03:00 +14°C° 0 mm 6 mps 766 mmHg 78%
    04:00 +14°C° 0 mm 6 mps 765 mmHg 78%
    05:00 +14°C° 0 mm 5 mps 765 mmHg 77%
    06:00 +14°C° 0 mm 5 mps 766 mmHg 77%
    07:00 +14°C° 0 mm 5 mps 766 mmHg 77%
    08:00 +15°C° 0 mm 4 mps 766 mmHg 70%
    09:00 +17°C° 0 mm 4 mps 766 mmHg 64%
    10:00 +18°C° 0 mm 3 mps 766 mmHg 58%
    11:00 +19°C° 0 mm 4 mps 766 mmHg 53%
    12:00 +20°C° 0 mm 4 mps 765 mmHg 49%
    13:00 +21°C° 0 mm 5 mps 765 mmHg 45%
    14:00 +21°C° 0 mm 6 mps 764 mmHg 47%
    15:00 +20°C° 0 mm 7 mps 764 mmHg 49%
    16:00 +20°C° 0 mm 8 mps 763 mmHg 52%
    17:00 +18°C° 0 mm 7 mps 763 mmHg 57%
    18:00 +17°C° 0 mm 7 mps 763 mmHg 61%
    19:00 +16°C° 0 mm 7 mps 763 mmHg 66%
    20:00 +16°C° 0 mm 7 mps 764 mmHg 68%
    21:00 +15°C° 0 mm 7 mps 764 mmHg 69%
    22:00 +15°C° 0 mm 7 mps 764 mmHg 70%
    23:00 +15°C° 0 mm 7 mps 764 mmHg 72%

    26 March, Tuesday

    Time Temperature Precipitation Wind Pressure Humidity
    00:00 +15°C° 0 mm 7 mps 764 mmHg 74%
    01:00 +15°C° 0 mm 6 mps 763 mmHg 76%
    02:00 +14°C° 0 mm 5 mps 763 mmHg 76%
    03:00 +14°C° 0 mm 5 mps 763 mmHg 76%
    04:00 +14°C° 0 mm 4 mps 763 mmHg 77%
    05:00 +14°C° 0 mm 4 mps 763 mmHg 74%
    06:00 +14°C° 0 mm 4 mps 763 mmHg 72%
    07:00 +16°C° 0 mm 3 mps 763 mmHg 70%
    08:00 +17°C° 0 mm 4 mps 763 mmHg 64%
    09:00 +18°C° 0 mm 4 mps 763 mmHg 58%
    10:00 +19°C° 0 mm 4 mps 763 mmHg 52%
    11:00 +20°C° 0 mm 5 mps 763 mmHg 50%
    12:00 +20°C° 0 mm 5 mps 763 mmHg 49%
    13:00 +20°C° 0 mm 6 mps 763 mmHg 47%
    14:00 +20°C° 0 mm 6 mps 762 mmHg 48%
    15:00 +20°C° 0 mm 6 mps 762 mmHg 49%
    16:00 +19°C° 0 mm 6 mps 762 mmHg 50%
    17:00 +19°C° 0 mm 6 mps 762 mmHg 55%
    18:00 +17°C° 0 mm 5 mps 763 mmHg 59%
    19:00 +16°C° 0 mm 5 mps 763 mmHg 64%
    20:00 +16°C° 0 mm 5 mps 764 mmHg 65%
    21:00 +15°C° 0 mm 4 mps 764 mmHg 67%
    22:00 +16°C° 0 mm 3 mps 765 mmHg 68%
    23:00 +16°C° 0 mm 3 mps 764 mmHg 69%
    Show more